Theta_e
316 314 314 313 313 314 315 315 315 315 315 315 314 312 312 313 315 317 320 322 322 323 323 323 332 333 331 335 339 347 344 349 351 349 347 344 347 348 347 344 345 344 344 346 347
318 316 314 313 313 313 314 314 314 315 315 315 314 312 312 312 314 317 323 322 322 323 323 321 323 327 325 329 342 345 345 349 348 344 344 345 348 349 346 345 345 344 344 346 347
320 319 316 314 313 313 314 315 315 314 313 314 314 312 311 312 314 318 322 323 322 323 323 322 322 324 324 339 344 348 350 349 348 344 342 346 347 348 346 346 344 344 345 346 346
320 320 319 316 314 314 316 317 317 316 313 312 313 311 311 312 316 329 324 323 324 324 323 322 322 324 326 341 347 350 351 349 347 344 345 348 346 348 348 347 342 340 342 344 346
321 320 320 319 316 315 316 318 319 318 317 313 311 310 311 312 320 329 328 324 324 324 323 321 324 325 334 345 348 348 348 345 345 345 344 345 347 347 347 346 342 342 343 343 343
321 321 320 319 318 316 316 317 319 319 319 317 312 311 311 314 320 326 328 325 326 323 322 321 325 323 346 345 346 345 347 346 345 343 346 347 344 344 345 344 345 344 344 343 343
321 321 321 319 319 317 316 318 319 319 322 319 315 313 313 318 329 329 325 319 324 324 322 323 323 323 345 342 344 344 345 346 347 344 345 343 345 346 343 346 346 345 344 344 344
320 320 320 320 319 319 317 317 319 320 321 320 318 316 315 325 330 329 326 322 320 322 322 323 323 325 344 342 339 340 345 351 347 346 346 344 347 341 343 344 346 346 345 345 345
319 319 319 320 320 319 318 317 318 319 321 322 319 325 323 320 325 328 329 324 321 322 324 322 321 338 342 342 342 343 346 349 349 345 345 344 344 341 343 343 344 345 346 346 345
319 319 319 319 320 320 319 316 317 319 321 323 322 323 327 328 329 328 328 326 324 323 322 322 323 332 337 337 342 344 346 347 349 347 346 345 344 341 340 341 341 343 342 345 344
317 318 319 319 320 320 319 317 321 327 324 325 325 325 326 328 328 327 327 326 323 322 319 321 320 321 334 340 339 343 340 346 349 348 347 346 345 342 341 341 341 343 343 344 344
317 317 318 319 320 320 319 317 321 321 317 322 325 326 327 326 327 326 326 325 321 319 318 318 319 320 327 339 340 340 343 345 344 348 347 348 348 346 343 342 340 342 343 342 343
317 317 317 319 320 320 320 319 321 322 317 321 324 326 326 327 327 326 325 324 319 317 317 317 320 323 335 340 340 340 342 342 342 345 343 343 343 345 341 343 342 341 343 342 340
317 317 317 319 320 321 322 322 322 322 318 323 326 327 327 328 326 326 325 324 319 317 316 317 319 325 340 340 338 341 339 343 346 349 349 341 345 340 340 341 341 342 344 342 341
316 317 317 318 319 321 321 321 322 323 326 328 326 329 328 328 323 322 324 324 318 319 318 320 333 339 340 339 337 337 338 340 348 346 343 344 347 342 341 341 342 342 343 343 341
317 317 317 318 319 321 321 322 323 321 325 329 327 325 323 323 323 322 322 323 321 320 319 319 323 337 337 337 337 334 332 328 341 340 346 343 346 342 341 339 339 341 343 345 343
317 317 318 319 320 322 321 322 320 324 325 329 326 322 322 321 322 321 320 319 317 319 319 319 320 328 332 331 333 330 319 324 328 340 342 336 343 340 337 336 338 341 342 344 343
317 320 324 320 320 322 322 318 325 324 326 324 324 324 323 323 323 320 318 318 316 318 315 318 320 319 318 322 319 320 318 321 327 333 333 340 344 339 339 338 338 340 343 343 344
318 327 323 322 321 322 321 318 319 321 323 322 322 326 324 325 326 320 317 317 317 315 318 317 320 320 320 320 320 321 322 320 322 325 335 339 339 338 339 338 335 336 338 341 344
318 327 327 323 322 322 317 317 318 320 321 321 323 324 321 325 324 319 317 318 319 317 317 319 321 322 322 323 321 321 319 321 317 332 339 338 341 342 340 341 339 337 337 340 340
323 327 327 322 322 321 316 316 319 321 320 320 321 320 320 325 325 321 322 321 320 320 317 317 319 321 322 321 320 320 320 317 317 323 334 339 339 335 337 337 339 339 340 341 340
322 324 328 321 320 314 316 317 319 319 323 319 318 317 319 323 325 326 327 328 329 320 319 317 316 319 322 322 321 319 320 318 321 323 327 331 334 330 332 335 338 340 340 340 341
324 326 328 326 317 315 317 322 322 322 322 321 321 323 322 321 323 324 327 328 330 326 321 319 318 321 323 326 329 332 330 323 317 317 327 334 334 331 332 335 338 338 338 340 344
326 323 326 325 324 323 323 324 325 327 326 325 325 323 321 320 321 324 328 330 329 330 329 323 317 321 323 325 328 332 330 328 327 327 325 330 335 333 334 335 338 340 339 343 345
326 323 324 322 322 321 321 322 324 326 326 325 324 327 325 322 324 324 327 327 328 327 326 321 325 324 323 327 330 330 331 331 330 329 332 330 332 330 332 335 338 340 341 343 344
324 323 323 323 322 320 318 322 326 326 325 324 325 326 323 326 325 326 324 325 327 324 324 322 323 325 328 327 331 332 331 331 332 329 326 330 331 326 329 335 336 339 341 342 342
316 319 322 322 320 321 321 324 326 324 325 326 323 324 325 326 326 325 325 324 323 325 325 326 323 322 325 330 328 329 328 330 331 330 325 331 330 327 329 333 335 338 341 342 342
Wind_Speed
16 13 9 7 6 6 7 8 8 8 8 8 7 7 7 8 10 12 11 5 9 4 2 2 2 1 4 6 8 6 2 2 5 6 4 5 3 3 6 18 1 9 6 20 25
18 16 12 9 7 7 7 8 8 8 8 8 7 6 7 7 10 16 7 7 9 7 3 1 1 3 4 4 4 3 2 5 7 6 2 4 2 8 4 8 1 8 13 27 24
18 17 15 12 9 7 6 7 8 8 8 7 6 6 6 5 6 4 5 13 12 10 6 2 3 5 2 2 1 2 2 1 1 8 6 4 2 7 13 5 10 21 27 25 22
18 17 16 14 11 8 7 7 8 8 8 7 6 5 3 1 4 3 4 10 14 11 8 3 1 1 2 2 1 2 3 3 3 6 4 4 1 5 13 5 14 20 28 26 23
17 17 16 14 11 9 8 8 8 8 8 7 5 3 2 3 4 5 7 7 14 12 8 5 2 1 3 3 2 4 2 7 2 7 9 8 10 6 11 13 15 23 27 25 23
17 17 16 15 13 10 9 9 8 9 7 6 4 2 2 2 7 3 4 2 9 12 9 8 5 4 6 3 3 2 11 6 2 3 5 8 5 2 7 17 21 25 27 24 24
16 16 16 15 14 12 11 10 9 9 6 6 4 2 6 5 8 6 1 1 9 11 10 7 6 0 7 3 3 3 4 5 4 5 4 6 3 3 4 18 22 26 28 25 25
17 15 15 14 13 11 10 10 9 9 7 5 4 4 5 9 9 8 5 2 8 10 7 5 5 1 5 10 3 2 3 2 1 7 2 3 5 4 5 16 22 21 23 27 26
17 16 15 14 13 11 11 9 8 8 7 6 4 3 3 10 12 7 8 4 7 8 5 4 4 5 8 4 4 4 2 3 3 8 4 4 4 9 15 11 15 21 29 29 28
19 17 16 15 14 11 10 8 8 10 8 6 8 6 4 1 6 11 9 8 5 5 5 4 3 4 3 3 4 5 2 3 3 6 5 5 9 7 10 14 12 11 27 32 29
20 19 17 15 14 12 9 7 4 3 7 8 10 11 17 4 5 9 14 12 8 5 3 1 0 8 9 6 2 5 3 2 3 3 5 7 7 13 14 13 13 14 22 30 31
21 20 17 15 14 11 7 3 4 5 10 15 18 21 17 15 4 12 16 11 6 4 4 4 7 8 4 6 3 4 5 4 1 3 7 1 12 8 8 8 17 20 20 28 28
22 21 19 14 12 7 3 1 5 11 3 9 13 16 18 13 11 15 20 18 4 5 6 7 10 5 6 5 6 4 6 7 4 7 3 1 6 8 6 14 7 18 22 21 31
23 22 20 14 5 3 2 2 9 3 4 6 3 5 11 8 4 17 22 16 2 9 8 6 7 7 3 5 6 3 16 11 6 3 2 2 5 5 6 6 7 18 18 22 28
24 22 18 13 9 6 3 4 2 3 2 1 4 4 10 11 4 12 24 18 8 7 7 7 2 4 4 8 8 11 14 13 11 4 2 3 2 5 3 6 10 14 23 25 27
24 23 18 13 11 6 6 0 9 5 4 3 7 5 6 5 2 6 13 9 2 5 1 7 5 8 10 3 18 1 5 6 6 3 2 4 6 5 5 7 6 13 24 27 29
25 20 16 10 2 7 6 5 5 3 5 3 4 5 7 6 3 5 7 8 5 3 4 3 5 4 6 5 3 4 7 2 3 1 6 5 4 10 5 6 6 15 23 27 30
24 15 10 3 9 7 8 5 2 3 5 4 2 3 7 5 4 5 6 4 6 2 2 4 7 8 6 11 9 8 9 6 6 4 3 3 5 6 2 6 8 10 24 27 28
18 8 7 5 12 9 6 3 6 5 3 7 6 2 3 2 4 5 6 7 7 10 9 6 6 5 6 4 10 6 5 4 6 3 2 3 6 8 5 6 10 10 10 24 28
13 6 6 4 12 8 5 4 4 4 4 2 2 2 2 4 5 7 8 5 7 13 5 5 2 3 4 6 3 8 7 2 3 3 4 3 5 5 4 3 3 7 7 12 24
7 3 5 7 10 3 3 6 5 10 6 4 1 4 7 4 6 6 6 7 5 5 9 5 5 9 4 4 9 2 1 6 5 4 5 2 6 6 8 6 8 7 9 10 17
6 3 4 11 4 2 2 4 4 5 20 8 5 9 6 3 4 4 7 3 8 9 10 10 5 6 11 4 5 6 6 5 5 4 1 3 6 3 6 7 10 15 19 18 16
10 4 6 10 1 3 6 5 5 3 4 3 4 6 6 7 2 4 2 4 10 1 7 7 3 2 7 7 3 3 4 6 5 4 5 6 5 4 1 6 16 18 18 18 16
6 4 4 5 7 3 5 5 6 12 6 8 4 4 1 4 2 3 2 4 11 4 2 10 5 7 8 8 5 3 4 4 5 4 4 6 4 4 5 6 10 15 17 25 26
7 2 4 3 4 4 2 4 6 8 9 10 2 4 4 4 4 4 2 5 5 12 5 3 4 4 5 7 5 4 4 8 5 5 6 6 10 10 12 12 22 25 31 31 26
5 5 7 4 7 6 5 5 6 6 3 7 6 5 5 4 3 3 2 2 3 7 6 6 2 4 3 4 3 4 5 2 1 3 6 3 7 5 6 9 13 21 28 27 23
6 3 3 4 4 2 2 5 5 8 5 10 7 4 1 5 17 14 7 9 7 2 2 3 3 3 5 2 2 3 6 6 5 5 8 6 11 6 5 10 18 20 26 25 25
Wind_Direction
23 17 10 357 346 337 330 327 323 321 317 314 308 295 276 260 255 255 250 202 198 203 161 133 193 354 280 251 217 190 87 236 207 134 229 162 16 110 168 143 212 211 195 173 165
22 20 14 6 354 342 332 327 323 321 318 314 308 301 294 279 263 255 231 209 202 212 182 114 277 291 285 247 198 146 150 226 169 150 163 117 232 338 110 147 90 123 152 162 165
18 17 15 9 3 355 347 340 333 328 322 316 311 309 307 304 286 272 213 205 198 207 209 262 297 304 284 304 248 158 242 274 74 139 145 140 291 343 134 185 203 158 157 167 175
13 12 11 9 5 359 354 351 348 347 336 323 316 314 311 242 160 82 169 193 187 204 214 211 180 48 320 287 24 346 22 34 89 129 90 359 293 327 223 241 179 165 166 174 186
4 5 5 5 1 354 344 342 346 351 349 335 323 312 288 233 206 91 83 151 184 208 212 202 173 241 19 73 77 22 353 50 86 147 127 292 286 272 251 207 167 169 174 179 191
355 356 356 357 355 346 336 332 336 343 342 344 335 308 244 254 178 153 49 297 214 215 208 196 153 34 89 51 89 140 84 111 109 167 178 200 272 283 118 167 173 180 187 190 196
347 347 347 348 347 341 329 326 327 336 333 335 334 295 255 200 143 163 132 257 217 215 203 197 219 193 162 104 142 62 65 0 183 177 205 217 318 152 135 184 182 189 196 199 205
341 340 339 337 337 335 320 314 313 323 325 319 320 298 249 162 179 198 211 142 173 190 188 181 283 264 166 138 63 97 71 42 160 184 168 141 230 250 170 160 193 199 202 203 211
340 337 333 329 326 328 317 310 304 309 310 302 306 303 251 201 231 206 214 179 143 173 181 257 296 141 125 80 14 12 139 161 294 222 135 138 232 248 196 165 177 199 205 208 214
339 335 331 324 318 319 315 305 294 295 286 286 272 305 238 146 237 204 188 202 185 194 235 243 203 98 58 98 233 229 184 246 246 212 222 156 263 285 255 224 221 219 204 206 212
339 335 329 323 310 311 306 293 290 293 235 248 276 273 289 22 202 213 202 199 206 182 147 341 184 220 200 198 256 144 158 86 240 212 179 219 247 257 253 237 203 187 185 194 210
338 334 328 323 304 302 295 224 74 359 295 278 265 260 252 255 306 212 202 192 159 180 108 11 254 241 172 189 115 141 156 229 281 221 175 192 260 253 235 240 213 201 195 205 208
337 335 328 324 304 292 267 107 333 323 252 290 241 236 231 238 225 226 197 203 153 153 176 175 238 116 165 171 166 170 203 199 191 146 127 38 281 228 231 220 207 214 217 210 212
336 335 326 329 303 242 125 326 341 316 52 276 237 225 200 198 225 219 191 188 186 198 146 222 276 227 155 203 145 230 205 200 129 90 270 142 269 277 196 213 202 202 207 209 207
335 331 322 312 282 257 218 314 350 130 358 163 202 168 178 173 161 201 195 196 184 182 121 235 253 156 180 209 162 234 164 201 174 125 48 208 318 270 114 218 237 209 208 210 203
335 327 315 303 283 237 221 264 136 45 265 312 153 165 123 204 248 138 185 193 262 168 210 243 256 161 212 158 191 23 109 57 60 81 309 205 169 266 188 208 225 217 207 214 214
334 322 306 289 241 165 178 147 51 144 323 323 203 162 173 196 183 158 169 186 182 128 281 309 233 231 172 160 234 95 67 17 9 26 225 4 134 250 249 217 213 193 201 210 210
337 326 314 235 191 177 156 59 163 239 262 319 311 100 182 164 233 206 136 217 226 121 128 179 317 184 188 192 180 181 156 162 201 203 260 346 229 256 269 293 215 190 203 207 214
345 8 85 120 169 160 162 90 210 206 307 334 347 80 355 287 193 156 199 214 208 167 179 157 263 288 198 162 132 183 186 191 114 21 100 237 291 305 334 126 138 142 177 207 214
349 78 87 100 157 144 81 227 245 218 340 329 272 159 329 251 165 169 183 202 213 194 188 207 318 259 346 107 48 148 165 89 12 150 240 268 290 238 278 192 249 152 188 214 216
6 82 119 111 147 126 153 229 257 284 321 338 270 312 226 250 191 189 217 262 220 178 161 147 129 279 44 187 184 85 216 55 122 126 163 180 262 216 210 215 224 243 199 219 230
13 61 137 156 39 23 168 213 304 281 298 240 211 211 229 233 230 224 205 239 298 159 165 206 156 221 230 284 183 150 177 136 127 225 177 160 271 254 212 204 192 241 257 257 249
353 342 70 200 83 332 309 294 252 293 270 238 254 234 218 198 230 210 260 278 327 213 171 177 224 91 345 356 13 176 190 121 112 80 189 146 254 297 354 181 194 210 227 240 229
2 8 14 75 79 81 351 285 323 324 278 334 265 7 27 223 290 239 283 295 334 23 260 138 129 169 191 204 163 174 166 168 126 127 180 221 216 271 270 241 195 186 198 210 209
13 42 21 332 342 345 275 348 339 359 332 332 344 13 242 44 15 9 332 318 327 358 7 89 163 166 244 172 172 176 205 168 170 205 155 226 191 209 208 203 198 199 197 199 197
19 12 357 312 318 341 4 358 354 342 277 332 2 330 50 110 156 275 344 325 281 331 26 343 177 127 245 303 194 163 223 227 246 187 282 172 235 215 195 192 203 206 180 181 185
16 7 330 320 346 16 43 325 354 344 293 33 331 320 332 349 314 283 272 264 249 257 313 9 99 85 229 262 89 6 224 214 211 204 155 159 224 151 187 196 205 194 188 193 202